Location: *
(51.5000°N, 0.1100°W)
Time: 18:17:54
(UTC+00:00)

Meteor 1-16 Rocket - Pass Details

Date: 25 May 2024
Orbit: 790 x 905 km, 81.2° (Epoch: 16 June)

Event Time Altitude Azimuth Distance (km) Brightness Sun altitude
Rises 00:56:16 0° 345° (NNW) 3,420 8.5 -16.3°
Reaches altitude 10° 00:58:40 10° 344° (NNW) 2,497 7.6 -16.3°
Maximum altitude 01:04:19 71° 262° (W) 926 4.3 -16.0°
Enters shadow 01:07:59 23° 183° (S) 1,772 5.3 -15.9°
